Time,TemperatureF,DewpointF,PressureIn,WindDirection,WindDirectionDegrees,WindSpeedMPH,WindSpeedGustMPH,Humidity,HourlyPrecipIn,Conditions,Clouds,dailyrainin,SoftwareType,DateUTC
2013-01-31 00:04:00,43.7,37.9,30.06,North,0,2.2,4.5,80,0.00,,,0.19,pywws,2013-01-31 00:04:00,
2013-01-31 00:09:00,44.1,38.3,30.06,North,0,0.7,3.1,80,0.00,,,0.00,pywws,2013-01-31 00:09:00,
2013-01-31 00:14:00,44.1,38.3,30.07,SE,135,0.7,4.5,80,0.00,,,0.00,pywws,2013-01-31 00:14:00,
2013-01-31 00:19:00,44.2,38.5,30.06,SSW,202,0.7,3.8,80,0.00,,,0.00,pywws,2013-01-31 00:19:00,
2013-01-31 00:24:00,44.2,38.5,30.06,NW,315,1.6,3.1,80,0.00,,,0.00,pywws,2013-01-31 00:24:00,
2013-01-31 00:34:00,44.2,38.5,30.06,North,-999,0.0,2.2,80,0.00,,,0.00,pywws,2013-01-31 00:34:00,
2013-01-31 00:39:00,43.9,38.1,30.06,NW,315,0.7,3.1,80,0.00,,,0.00,pywws,2013-01-31 00:39:00,
2013-01-31 00:44:00,43.9,38.1,30.06,West,270,1.6,3.1,80,0.00,,,0.00,pywws,2013-01-31 00:44:00,
2013-01-31 00:49:00,44.1,38.3,30.06,North,-999,0.0,1.6,80,0.00,,,0.00,pywws,2013-01-31 00:49:00,
2013-01-31 00:54:00,44.1,38.3,30.06,SW,225,1.6,3.8,80,0.00,,,0.00,pywws,2013-01-31 00:54:00,
2013-01-31 01:04:00,43.9,38.1,30.05,NE,45,0.7,3.1,80,0.00,,,0.00,pywws,2013-01-31 01:04:00,
2013-01-31 01:09:00,43.9,38.1,30.05,South,180,0.7,3.8,80,0.00,,,0.00,pywws,2013-01-31 01:09:00,
2013-01-31 01:14:00,43.9,38.1,30.04,South,180,1.6,3.8,80,0.00,,,0.00,pywws,2013-01-31 01:14:00,
2013-01-31 01:19:00,43.9,38.1,30.03,WNW,292,0.7,2.2,80,0.00,,,0.00,pywws,2013-01-31 01:19:00,
2013-01-31 01:24:00,43.9,38.1,30.03,North,-999,0.0,1.6,80,0.00,,,0.00,pywws,2013-01-31 01:24:00,
2013-01-31 01:34:00,44.2,38.5,30.03,West,270,0.7,1.6,80,0.00,,,0.00,pywws,2013-01-31 01:34:00,
2013-01-31 01:39:00,44.2,38.5,30.03,West,270,0.7,3.1,80,0.00,,,0.00,pywws,2013-01-31 01:39:00,
2013-01-31 01:44:00,44.1,38.0,30.03,South,180,1.6,3.8,79,0.00,,,0.00,pywws,2013-01-31 01:44:00,
2013-01-31 01:49:00,44.2,38.5,30.03,West,270,1.6,3.1,80,0.00,,,0.00,pywws,2013-01-31 01:49:00,
2013-01-31 01:54:00,43.9,38.1,30.02,SW,225,1.6,3.1,80,0.00,,,0.00,pywws,2013-01-31 01:54:00,
2013-01-31 02:04:00,44.1,38.3,30.02,South,180,0.7,4.5,80,0.00,,,0.00,pywws,2013-01-31 02:04:00,
2013-01-31 02:09:00,44.1,38.3,30.02,NW,315,1.6,3.8,80,0.00,,,0.00,pywws,2013-01-31 02:09:00,
2013-01-31 02:14:00,44.2,38.8,30.02,South,180,3.1,5.4,81,0.00,,,0.00,pywws,2013-01-31 02:14:00,
2013-01-31 02:19:00,43.9,38.4,30.01,NW,315,0.7,3.8,81,0.00,,,0.00,pywws,2013-01-31 02:19:00,
2013-01-31 02:24:00,44.1,38.9,30.01,South,180,1.6,3.8,82,0.00,,,0.00,pywws,2013-01-31 02:24:00,
2013-01-31 02:34:00,44.1,38.9,30.02,SW,225,1.6,4.5,82,0.00,,,0.00,pywws,2013-01-31 02:34:00,
2013-01-31 02:38:00,44.2,39.4,30.01,SSW,202,0.7,1.6,83,0.00,,,0.00,pywws,2013-01-31 02:38:00,
2013-01-31 02:43:00,44.1,39.2,30.01,SW,225,2.2,4.5,83,0.00,,,0.00,pywws,2013-01-31 02:43:00,
2013-01-31 02:48:00,44.2,39.4,29.99,SW,225,0.7,4.5,83,0.00,,,0.00,pywws,2013-01-31 02:48:00,
2013-01-31 02:53:00,44.2,39.4,29.99,West,270,0.7,2.2,83,0.00,,,0.00,pywws,2013-01-31 02:53:00,
2013-01-31 03:04:00,44.1,39.2,29.98,South,180,2.2,4.5,83,0.00,,,0.00,pywws,2013-01-31 03:04:00,
2013-01-31 03:09:00,44.4,39.9,29.98,SW,225,2.2,4.5,84,0.00,,,0.00,pywws,2013-01-31 03:09:00,
2013-01-31 03:14:00,44.2,39.4,29.98,South,180,2.2,5.4,83,0.00,,,0.00,pywws,2013-01-31 03:14:00,
2013-01-31 03:19:00,44.2,39.7,29.97,South,180,1.6,5.4,84,0.00,,,0.00,pywws,2013-01-31 03:19:00,
2013-01-31 03:24:00,44.2,39.7,29.97,West,270,0.7,2.2,84,0.00,,,0.00,pywws,2013-01-31 03:24:00,
2013-01-31 03:34:00,44.4,39.9,29.97,South,180,0.7,3.1,84,0.00,,,0.00,pywws,2013-01-31 03:34:00,
2013-01-31 03:39:00,44.6,40.4,29.94,SW,225,1.6,3.1,85,0.00,,,0.00,pywws,2013-01-31 03:39:00,
2013-01-31 03:44:00,44.8,40.2,29.93,South,180,0.7,3.8,84,0.00,,,0.00,pywws,2013-01-31 03:44:00,
2013-01-31 03:49:00,45.0,40.4,29.92,SW,225,3.1,5.4,84,0.00,,,0.00,pywws,2013-01-31 03:49:00,
2013-01-31 03:54:00,45.3,40.8,29.91,SE,135,2.2,9.2,84,0.00,,,0.00,pywws,2013-01-31 03:54:00,
2013-01-31 04:04:00,45.7,40.8,29.91,NW,315,1.6,3.1,83,0.00,,,0.00,pywws,2013-01-31 04:04:00,
2013-01-31 04:09:00,46.0,41.2,29.91,West,270,0.7,2.2,83,0.00,,,0.00,pywws,2013-01-31 04:09:00,
2013-01-31 04:14:00,46.0,40.9,29.91,NW,315,1.6,4.5,82,0.00,,,0.00,pywws,2013-01-31 04:14:00,
2013-01-31 04:19:00,46.4,41.2,29.91,South,180,3.1,6.9,82,0.00,,,0.00,pywws,2013-01-31 04:19:00,
2013-01-31 04:24:00,46.6,41.4,29.90,South,180,1.6,4.5,82,0.00,,,0.00,pywws,2013-01-31 04:24:00,
2013-01-31 04:34:00,47.5,41.6,29.90,South,180,3.8,6.0,80,0.00,,,0.00,pywws,2013-01-31 04:34:00,
2013-01-31 04:39:00,47.8,41.3,29.90,South,180,2.2,9.2,78,0.00,,,0.00,pywws,2013-01-31 04:39:00,
2013-01-31 04:44:00,48.2,41.7,29.90,West,270,2.2,4.5,78,0.00,,,0.00,pywws,2013-01-31 04:44:00,
2013-01-31 04:49:00,48.4,41.8,29.89,SW,225,1.6,3.8,78,0.00,,,0.00,pywws,2013-01-31 04:49:00,
2013-01-31 04:54:00,48.4,41.8,29.88,South,180,0.7,3.8,78,0.00,,,0.00,pywws,2013-01-31 04:54:00,
2013-01-31 05:04:00,48.4,41.5,29.88,SSW,202,4.5,9.2,77,0.00,,,0.00,pywws,2013-01-31 05:04:00,
2013-01-31 05:09:00,48.7,41.9,29.87,SW,225,1.6,8.3,77,0.00,,,0.00,pywws,2013-01-31 05:09:00,
2013-01-31 05:14:00,48.7,41.9,29.86,SW,225,2.2,6.0,77,0.00,,,0.00,pywws,2013-01-31 05:14:00,
2013-01-31 05:19:00,48.7,41.9,29.86,South,180,1.6,3.8,77,0.00,,,0.00,pywws,2013-01-31 05:19:00,
2013-01-31 05:24:00,48.9,42.0,29.86,SW,225,4.5,9.8,77,0.00,,,0.00,pywws,2013-01-31 05:24:00,
2013-01-31 05:34:00,48.9,42.7,29.85,NW,315,1.6,3.1,79,0.00,,,0.00,pywws,2013-01-31 05:34:00,
2013-01-31 05:39:00,48.4,42.8,29.85,South,180,0.7,3.1,81,0.00,,,0.00,pywws,2013-01-31 05:39:00,
2013-01-31 05:44:00,48.2,42.6,29.85,West,270,5.4,12.1,81,0.01,,,0.01,pywws,2013-01-31 05:44:00,
2013-01-31 05:49:00,48.4,42.8,29.84,South,180,3.1,5.4,81,0.01,,,0.01,pywws,2013-01-31 05:49:00,
2013-01-31 05:54:00,48.4,43.1,29.84,NW,315,1.6,4.5,82,0.01,,,0.01,pywws,2013-01-31 05:54:00,
2013-01-31 06:04:00,48.6,43.0,29.83,NNE,22,3.8,7.6,81,0.01,,,0.01,pywws,2013-01-31 06:04:00,
2013-01-31 06:09:00,49.1,43.5,29.83,North,-999,3.1,5.4,81,0.01,,,0.01,pywws,2013-01-31 06:09:00,
2013-01-31 06:14:00,48.9,43.7,29.83,North,0,3.8,6.9,82,0.01,,,0.01,pywws,2013-01-31 06:14:00,
2013-01-31 06:19:00,49.3,43.7,29.83,South,180,4.5,9.2,81,0.01,,,0.01,pywws,2013-01-31 06:19:00,
2013-01-31 06:24:00,49.3,43.4,29.83,SW,225,4.5,8.3,80,0.01,,,0.01,pywws,2013-01-31 06:24:00,
2013-01-31 06:34:00,49.1,43.2,29.83,South,180,3.1,5.4,80,0.01,,,0.01,pywws,2013-01-31 06:34:00,
2013-01-31 06:38:00,49.5,43.9,29.83,West,270,4.5,9.2,81,0.01,,,0.01,pywws,2013-01-31 06:38:00,
2013-01-31 06:43:00,49.5,43.6,29.83,NW,315,3.8,9.2,80,0.00,,,0.01,pywws,2013-01-31 06:43:00,
2013-01-31 06:48:00,49.3,42.7,29.83,SW,225,3.8,9.8,78,0.00,,,0.01,pywws,2013-01-31 06:48:00,
2013-01-31 06:53:00,49.1,42.2,29.83,South,180,3.8,9.8,77,0.00,,,0.01,pywws,2013-01-31 06:53:00,
2013-01-31 07:04:00,48.9,42.0,29.83,South,180,2.2,4.5,77,0.00,,,0.01,pywws,2013-01-31 07:04:00,
2013-01-31 07:09:00,48.2,42.3,29.83,SW,225,0.7,3.1,80,0.00,,,0.01,pywws,2013-01-31 07:09:00,
2013-01-31 07:14:00,47.8,42.3,29.83,SW,225,3.1,6.0,81,0.00,,,0.01,pywws,2013-01-31 07:14:00,
2013-01-31 07:19:00,48.2,42.6,29.83,SW,225,2.2,5.4,81,0.00,,,0.01,pywws,2013-01-31 07:19:00,
2013-01-31 07:24:00,48.4,42.5,29.83,SW,225,2.2,3.8,80,0.00,,,0.01,pywws,2013-01-31 07:24:00,
2013-01-31 07:34:00,48.4,42.5,29.82,SW,225,0.7,3.1,80,0.00,,,0.01,pywws,2013-01-31 07:34:00,
2013-01-31 07:39:00,48.2,43.0,29.82,North,0,3.1,6.9,82,0.00,,,0.01,pywws,2013-01-31 07:39:00,
2013-01-31 07:44:00,48.2,43.0,29.82,NE,45,2.2,4.5,82,0.00,,,0.01,pywws,2013-01-31 07:44:00,
2013-01-31 07:49:00,48.0,42.8,29.83,West,270,3.1,4.5,82,0.00,,,0.01,pywws,2013-01-31 07:49:00,
2013-01-31 07:54:00,47.8,42.6,29.83,South,180,1.6,6.0,82,0.00,,,0.01,pywws,2013-01-31 07:54:00,
2013-01-31 08:04:00,48.4,42.8,29.83,South,180,2.2,5.4,81,0.00,,,0.01,pywws,2013-01-31 08:04:00,
2013-01-31 08:08:00,47.8,42.3,29.82,South,180,3.1,7.6,81,0.00,,,0.01,pywws,2013-01-31 08:08:00,
2013-01-31 08:13:00,48.2,42.3,29.82,South,180,3.1,6.0,80,0.00,,,0.01,pywws,2013-01-31 08:13:00,
2013-01-31 08:18:00,48.4,42.5,29.82,SW,225,3.1,6.9,80,0.00,,,0.01,pywws,2013-01-31 08:18:00,
2013-01-31 08:23:00,48.2,42.3,29.82,SW,225,1.6,6.0,80,0.00,,,0.01,pywws,2013-01-31 08:23:00,
2013-01-31 08:34:00,48.0,42.1,29.82,North,0,2.2,5.4,80,0.00,,,0.01,pywws,2013-01-31 08:34:00,
2013-01-31 08:39:00,48.4,41.8,29.82,SW,225,3.1,6.0,78,0.00,,,0.01,pywws,2013-01-31 08:39:00,
2013-01-31 08:44:00,48.6,41.7,29.82,SW,225,2.2,4.5,77,0.00,,,0.01,pywws,2013-01-31 08:44:00,
2013-01-31 08:49:00,48.6,41.7,29.83,South,180,3.1,6.0,77,0.00,,,0.01,pywws,2013-01-31 08:49:00,
2013-01-31 08:54:00,48.7,41.9,29.83,NW,315,2.2,6.0,77,0.00,,,0.01,pywws,2013-01-31 08:54:00,
2013-01-31 09:04:00,48.9,41.3,29.83,NW,315,3.1,4.5,75,0.00,,,0.01,pywws,2013-01-31 09:04:00,
2013-01-31 09:09:00,47.7,39.4,29.83,NW,315,2.2,6.9,73,0.00,,,0.01,pywws,2013-01-31 09:09:00,
2013-01-31 09:14:00,49.6,41.3,29.83,South,180,3.8,7.6,73,0.00,,,0.01,pywws,2013-01-31 09:14:00,
2013-01-31 09:19:00,50.0,41.3,29.84,SW,225,3.1,7.6,72,0.00,,,0.01,pywws,2013-01-31 09:19:00,
2013-01-31 09:24:00,49.8,40.8,29.84,West,270,3.1,9.8,71,0.00,,,0.01,pywws,2013-01-31 09:24:00,
2013-01-31 09:34:00,50.0,41.0,29.83,South,180,2.2,4.5,71,0.00,,,0.01,pywws,2013-01-31 09:34:00,
2013-01-31 09:39:00,50.4,41.0,29.83,South,180,3.8,8.3,70,0.00,,,0.01,pywws,2013-01-31 09:39:00,
2013-01-31 09:44:00,51.1,41.6,29.83,SW,225,3.1,6.9,70,0.00,,,0.01,pywws,2013-01-31 09:44:00,
2013-01-31 09:49:00,51.1,41.6,29.83,West,270,1.6,3.8,70,0.00,,,0.01,pywws,2013-01-31 09:49:00,
2013-01-31 09:54:00,50.5,41.5,29.85,South,180,0.7,3.8,71,0.00,,,0.01,pywws,2013-01-31 09:54:00,
2013-01-31 10:04:00,49.5,42.2,29.87,North,0,1.6,6.9,76,0.01,,,0.02,pywws,2013-01-31 10:04:00,
2013-01-31 10:09:00,45.9,40.7,29.87,NW,315,3.8,8.3,82,0.04,,,0.05,pywws,2013-01-31 10:09:00,
2013-01-31 10:14:00,45.5,40.6,29.87,NNE,22,3.1,10.7,83,0.04,,,0.05,pywws,2013-01-31 10:14:00,
2013-01-31 10:19:00,45.1,40.9,29.87,SW,225,1.6,6.9,85,0.04,,,0.05,pywws,2013-01-31 10:19:00,
2013-01-31 10:24:00,45.1,40.9,29.86,SW,225,2.2,6.0,85,0.05,,,0.06,pywws,2013-01-31 10:24:00,
2013-01-31 10:34:00,45.7,41.7,29.87,North,0,3.1,8.3,86,0.05,,,0.06,pywws,2013-01-31 10:34:00,
2013-01-31 10:38:00,47.7,41.8,29.87,North,0,2.2,3.8,80,0.05,,,0.06,pywws,2013-01-31 10:38:00,
2013-01-31 10:43:00,49.3,41.3,29.87,SW,225,1.6,4.5,74,0.05,,,0.06,pywws,2013-01-31 10:43:00,
2013-01-31 10:48:00,50.5,41.1,29.87,NW,315,3.8,7.6,70,0.05,,,0.06,pywws,2013-01-31 10:48:00,
2013-01-31 10:53:00,50.7,40.5,29.87,SW,225,3.1,6.0,68,0.05,,,0.06,pywws,2013-01-31 10:53:00,
2013-01-31 11:04:00,50.9,40.0,29.87,NW,315,3.8,9.8,66,0.04,,,0.06,pywws,2013-01-31 11:04:00,
2013-01-31 11:09:00,50.2,40.8,29.88,NW,315,0.7,3.1,70,0.01,,,0.06,pywws,2013-01-31 11:09:00,
2013-01-31 11:14:00,50.9,41.1,29.88,South,180,3.8,6.9,69,0.01,,,0.06,pywws,2013-01-31 11:14:00,
2013-01-31 11:19:00,51.4,41.2,29.88,WNW,292,3.1,8.3,68,0.01,,,0.06,pywws,2013-01-31 11:19:00,
2013-01-31 11:24:00,52.0,41.4,29.87,NW,315,3.8,11.4,67,0.00,,,0.06,pywws,2013-01-31 11:24:00,
2013-01-31 11:34:00,52.0,41.4,29.88,SW,225,2.2,4.5,67,0.00,,,0.06,pywws,2013-01-31 11:34:00,
2013-01-31 11:39:00,52.5,41.1,29.88,West,270,3.1,11.4,65,0.00,,,0.06,pywws,2013-01-31 11:39:00,
2013-01-31 11:44:00,52.5,41.9,29.88,SW,225,0.7,3.1,67,0.00,,,0.06,pywws,2013-01-31 11:44:00,
2013-01-31 11:49:00,52.5,40.7,29.88,West,270,5.4,12.1,64,0.00,,,0.06,pywws,2013-01-31 11:49:00,
2013-01-31 11:54:00,52.7,41.3,29.88,SW,225,3.1,6.9,65,0.00,,,0.06,pywws,2013-01-31 11:54:00,
2013-01-31 12:04:00,52.2,40.8,29.88,West,270,4.5,10.7,65,0.00,,,0.06,pywws,2013-01-31 12:04:00,
2013-01-31 12:09:00,51.1,40.1,29.88,SW,225,2.2,6.0,66,0.00,,,0.06,pywws,2013-01-31 12:09:00,
2013-01-31 12:14:00,50.2,40.4,29.89,WSW,248,3.8,12.1,69,0.00,,,0.06,pywws,2013-01-31 12:14:00,
2013-01-31 12:19:00,49.3,39.9,29.88,South,180,2.2,6.0,70,0.00,,,0.06,pywws,2013-01-31 12:19:00,
2013-01-31 12:24:00,49.3,40.3,29.88,NW,315,2.2,9.8,71,0.00,,,0.06,pywws,2013-01-31 12:24:00,
2013-01-31 12:34:00,52.5,43.4,29.89,NW,315,3.1,5.4,71,0.00,,,0.06,pywws,2013-01-31 12:34:00,
2013-01-31 12:39:00,50.5,40.4,29.88,SW,225,3.1,6.9,68,0.00,,,0.06,pywws,2013-01-31 12:39:00,
2013-01-31 12:44:00,50.7,40.5,29.89,South,180,3.1,6.9,68,0.00,,,0.06,pywws,2013-01-31 12:44:00,
2013-01-31 12:49:00,50.5,40.0,29.89,West,270,3.1,7.6,67,0.00,,,0.06,pywws,2013-01-31 12:49:00,
2013-01-31 12:54:00,50.5,40.0,29.89,SE,135,1.6,3.8,67,0.00,,,0.06,pywws,2013-01-31 12:54:00,
2013-01-31 13:04:00,50.5,39.6,29.89,West,270,3.1,8.3,66,0.00,,,0.06,pywws,2013-01-31 13:04:00,
2013-01-31 13:09:00,50.7,40.2,29.89,WSW,248,2.2,4.5,67,0.00,,,0.06,pywws,2013-01-31 13:09:00,
2013-01-31 13:14:00,50.7,39.8,29.89,NW,315,2.2,7.6,66,0.00,,,0.06,pywws,2013-01-31 13:14:00,
2013-01-31 13:19:00,50.9,40.0,29.89,SSW,202,2.2,4.5,66,0.00,,,0.06,pywws,2013-01-31 13:19:00,
2013-01-31 13:24:00,51.1,40.1,29.89,West,270,2.2,3.8,66,0.00,,,0.06,pywws,2013-01-31 13:24:00,
2013-01-31 13:34:00,51.3,40.3,29.90,West,270,3.8,9.2,66,0.00,,,0.06,pywws,2013-01-31 13:34:00,
2013-01-31 13:39:00,50.9,39.6,29.90,NW,315,3.8,7.6,65,0.00,,,0.06,pywws,2013-01-31 13:39:00,
2013-01-31 13:44:00,51.3,39.9,29.90,South,180,3.8,7.6,65,0.00,,,0.06,pywws,2013-01-31 13:44:00,
2013-01-31 13:49:00,51.6,39.8,29.90,NW,315,4.5,6.9,64,0.00,,,0.06,pywws,2013-01-31 13:49:00,
2013-01-31 13:54:00,51.8,39.6,29.90,SE,135,6.0,10.7,63,0.00,,,0.06,pywws,2013-01-31 13:54:00,
2013-01-31 14:04:00,51.3,39.9,29.91,NW,315,3.1,5.4,65,0.00,,,0.06,pywws,2013-01-31 14:04:00,
2013-01-31 14:09:00,51.3,39.5,29.91,NW,315,4.5,11.4,64,0.00,,,0.06,pywws,2013-01-31 14:09:00,
2013-01-31 14:14:00,51.1,38.9,29.91,WSW,248,4.5,9.2,63,0.00,,,0.06,pywws,2013-01-31 14:14:00,
2013-01-31 14:19:00,51.1,39.3,29.91,North,0,3.1,6.0,64,0.00,,,0.06,pywws,2013-01-31 14:19:00,
2013-01-31 14:24:00,51.1,39.3,29.91,SW,225,2.2,5.4,64,0.00,,,0.06,pywws,2013-01-31 14:24:00,
2013-01-31 14:34:00,51.4,39.7,29.91,NW,315,1.6,4.5,64,0.00,,,0.06,pywws,2013-01-31 14:34:00,
2013-01-31 14:39:00,50.9,38.4,29.91,West,270,4.5,9.8,62,0.00,,,0.06,pywws,2013-01-31 14:39:00,
2013-01-31 14:44:00,50.7,38.6,29.91,South,180,2.2,4.5,63,0.00,,,0.06,pywws,2013-01-31 14:44:00,
2013-01-31 14:49:00,50.7,38.2,29.91,SW,225,3.1,7.6,62,0.00,,,0.06,pywws,2013-01-31 14:49:00,
2013-01-31 14:54:00,50.7,38.2,29.91,South,180,3.1,8.3,62,0.00,,,0.06,pywws,2013-01-31 14:54:00,
2013-01-31 15:04:00,50.7,38.6,29.91,North,0,2.2,5.4,63,0.00,,,0.06,pywws,2013-01-31 15:04:00,
2013-01-31 15:09:00,50.5,37.6,29.91,West,270,3.8,6.9,61,0.00,,,0.06,pywws,2013-01-31 15:09:00,
2013-01-31 15:14:00,50.4,37.4,29.91,West,270,2.2,6.9,61,0.00,,,0.06,pywws,2013-01-31 15:14:00,
2013-01-31 15:19:00,50.2,37.3,29.92,South,180,3.1,6.0,61,0.00,,,0.06,pywws,2013-01-31 15:19:00,
2013-01-31 15:24:00,50.2,37.7,29.91,WNW,292,2.2,5.4,62,0.00,,,0.06,pywws,2013-01-31 15:24:00,
2013-01-31 15:34:00,50.0,37.1,29.91,West,270,2.2,3.8,61,0.00,,,0.06,pywws,2013-01-31 15:34:00,
2013-01-31 15:39:00,50.0,37.1,29.91,South,180,1.6,5.4,61,0.00,,,0.06,pywws,2013-01-31 15:39:00,
2013-01-31 15:44:00,50.0,36.7,29.91,South,180,1.6,3.8,60,0.00,,,0.06,pywws,2013-01-31 15:44:00,
2013-01-31 15:49:00,49.6,36.7,29.91,West,270,3.1,7.6,61,0.00,,,0.06,pywws,2013-01-31 15:49:00,
2013-01-31 15:54:00,49.6,36.7,29.91,West,270,5.4,9.8,61,0.00,,,0.06,pywws,2013-01-31 15:54:00,
2013-01-31 16:04:00,49.5,37.0,29.91,SW,225,3.1,8.3,62,0.00,,,0.06,pywws,2013-01-31 16:04:00,
2013-01-31 16:09:00,49.5,37.0,29.92,SSW,202,2.2,6.0,62,0.00,,,0.06,pywws,2013-01-31 16:09:00,
2013-01-31 16:14:00,49.3,36.8,29.92,West,270,1.6,4.5,62,0.00,,,0.06,pywws,2013-01-31 16:14:00,
2013-01-31 16:19:00,49.1,37.1,29.91,SW,225,3.8,6.0,63,0.00,,,0.06,pywws,2013-01-31 16:19:00,
2013-01-31 16:24:00,49.1,37.5,29.92,West,270,3.1,7.6,64,0.00,,,0.06,pywws,2013-01-31 16:24:00,
2013-01-31 16:34:00,49.1,37.8,29.92,SW,225,0.7,4.5,65,0.00,,,0.06,pywws,2013-01-31 16:34:00,
2013-01-31 16:38:00,49.3,38.4,29.92,North,0,3.1,5.4,66,0.00,,,0.06,pywws,2013-01-31 16:38:00,
2013-01-31 16:43:00,49.3,38.4,29.93,NW,315,3.1,6.0,66,0.00,,,0.06,pywws,2013-01-31 16:43:00,
2013-01-31 16:48:00,49.3,38.0,29.93,North,0,1.6,3.8,65,0.00,,,0.06,pywws,2013-01-31 16:48:00,
2013-01-31 16:53:00,49.3,38.0,29.93,West,270,2.2,6.0,65,0.00,,,0.06,pywws,2013-01-31 16:53:00,
2013-01-31 17:04:00,49.3,38.4,29.93,SW,225,1.6,3.8,66,0.00,,,0.06,pywws,2013-01-31 17:04:00,
2013-01-31 17:09:00,48.7,37.9,29.93,South,180,2.2,9.8,66,0.00,,,0.06,pywws,2013-01-31 17:09:00,
2013-01-31 17:14:00,48.7,37.9,29.93,SW,225,3.1,5.4,66,0.00,,,0.06,pywws,2013-01-31 17:14:00,
2013-01-31 17:19:00,48.4,37.6,29.93,SW,225,3.1,9.2,66,0.00,,,0.06,pywws,2013-01-31 17:19:00,
2013-01-31 17:24:00,48.4,37.6,29.93,NW,315,2.2,4.5,66,0.00,,,0.06,pywws,2013-01-31 17:24:00,
2013-01-31 17:34:00,48.6,37.7,29.93,SW,225,2.2,6.0,66,0.00,,,0.06,pywws,2013-01-31 17:34:00,
2013-01-31 17:39:00,48.4,37.6,29.93,West,270,2.2,3.8,66,0.00,,,0.06,pywws,2013-01-31 17:39:00,
2013-01-31 17:44:00,48.2,37.4,29.93,NNE,22,2.2,3.8,66,0.00,,,0.06,pywws,2013-01-31 17:44:00,
2013-01-31 17:49:00,48.2,37.4,29.93,West,270,1.6,4.5,66,0.00,,,0.06,pywws,2013-01-31 17:49:00,
2013-01-31 17:54:00,48.0,37.6,29.93,SW,225,2.2,5.4,67,0.00,,,0.06,pywws,2013-01-31 17:54:00,
2013-01-31 18:04:00,48.0,37.6,29.93,West,270,1.6,3.1,67,0.00,,,0.06,pywws,2013-01-31 18:04:00,
2013-01-31 18:09:00,48.0,37.6,29.93,South,180,2.2,5.4,67,0.00,,,0.06,pywws,2013-01-31 18:09:00,
2013-01-31 18:14:00,48.0,37.6,29.93,SW,225,1.6,3.8,67,0.00,,,0.06,pywws,2013-01-31 18:14:00,
2013-01-31 18:19:00,48.0,37.6,29.93,SW,225,2.2,6.9,67,0.00,,,0.06,pywws,2013-01-31 18:19:00,
2013-01-31 18:24:00,48.2,37.8,29.93,NW,315,3.1,5.4,67,0.00,,,0.06,pywws,2013-01-31 18:24:00,
2013-01-31 18:34:00,48.0,37.6,29.93,NW,315,1.6,5.4,67,0.00,,,0.06,pywws,2013-01-31 18:34:00,
2013-01-31 18:39:00,47.7,37.6,29.93,West,270,3.1,7.6,68,0.00,,,0.06,pywws,2013-01-31 18:39:00,
2013-01-31 18:44:00,47.5,37.5,29.93,South,180,4.5,9.2,68,0.00,,,0.06,pywws,2013-01-31 18:44:00,
2013-01-31 18:49:00,47.5,37.5,29.93,South,180,3.8,6.9,68,0.00,,,0.06,pywws,2013-01-31 18:49:00,
2013-01-31 18:54:00,47.5,37.5,29.93,South,180,3.1,8.3,68,0.00,,,0.06,pywws,2013-01-31 18:54:00,
2013-01-31 19:04:00,47.3,37.7,29.94,SE,135,2.2,5.4,69,0.00,,,0.06,pywws,2013-01-31 19:04:00,
2013-01-31 19:09:00,47.7,38.0,29.94,South,180,1.6,6.9,69,0.00,,,0.06,pywws,2013-01-31 19:09:00,
2013-01-31 19:14:00,47.3,37.7,29.94,SW,225,1.6,4.5,69,0.00,,,0.06,pywws,2013-01-31 19:14:00,
2013-01-31 19:19:00,47.3,37.7,29.94,North,-999,0.0,2.2,69,0.00,,,0.06,pywws,2013-01-31 19:19:00,
2013-01-31 19:24:00,46.9,37.7,29.94,SW,225,0.7,2.2,70,0.00,,,0.06,pywws,2013-01-31 19:24:00,
2013-01-31 19:34:00,46.8,37.5,29.94,SW,225,1.6,2.2,70,0.00,,,0.06,pywws,2013-01-31 19:34:00,
2013-01-31 19:39:00,46.4,37.5,29.93,North,-999,0.0,1.6,71,0.00,,,0.06,pywws,2013-01-31 19:39:00,
2013-01-31 19:44:00,46.0,37.5,29.93,SW,225,1.6,4.5,72,0.00,,,0.06,pywws,2013-01-31 19:44:00,
2013-01-31 19:49:00,46.2,37.7,29.93,North,-999,0.0,1.6,72,0.00,,,0.06,pywws,2013-01-31 19:49:00,
2013-01-31 19:54:00,46.0,37.9,29.93,SW,225,0.7,2.2,73,0.00,,,0.06,pywws,2013-01-31 19:54:00,
2013-01-31 20:04:00,46.4,38.2,29.93,NW,315,0.7,1.6,73,0.00,,,0.06,pywws,2013-01-31 20:04:00,
2013-01-31 20:09:00,46.6,38.4,29.94,North,-999,0.0,1.6,73,0.00,,,0.06,pywws,2013-01-31 20:09:00,
2013-01-31 20:14:00,46.6,38.4,29.93,SE,135,0.7,3.1,73,0.00,,,0.06,pywws,2013-01-31 20:14:00,
2013-01-31 20:19:00,46.6,38.7,29.93,NW,315,0.7,2.2,74,0.00,,,0.06,pywws,2013-01-31 20:19:00,
2013-01-31 20:24:00,46.6,38.7,29.94,SSW,202,0.7,3.1,74,0.00,,,0.06,pywws,2013-01-31 20:24:00,
2013-01-31 20:34:00,46.6,38.7,29.94,SW,225,0.7,1.6,74,0.00,,,0.06,pywws,2013-01-31 20:34:00,
2013-01-31 20:39:00,46.6,39.1,29.94,SW,225,0.7,3.8,75,0.00,,,0.06,pywws,2013-01-31 20:39:00,
2013-01-31 20:44:00,46.4,39.3,29.94,South,180,0.7,1.6,76,0.00,,,0.06,pywws,2013-01-31 20:44:00,
2013-01-31 20:49:00,46.4,39.3,29.94,North,-999,0.0,0.7,76,0.00,,,0.06,pywws,2013-01-31 20:49:00,
2013-01-31 20:54:00,46.4,39.3,29.94,South,180,0.7,3.1,76,0.00,,,0.06,pywws,2013-01-31 20:54:00,
2013-01-31 21:04:00,46.6,39.1,29.94,South,180,0.7,2.2,75,0.00,,,0.06,pywws,2013-01-31 21:04:00,
2013-01-31 21:09:00,46.4,38.9,29.95,SW,225,1.6,3.8,75,0.00,,,0.06,pywws,2013-01-31 21:09:00,
2013-01-31 21:14:00,46.2,38.7,29.95,North,-999,0.0,2.2,75,0.00,,,0.06,pywws,2013-01-31 21:14:00,
2013-01-31 21:19:00,45.9,38.4,29.94,North,-999,0.0,1.6,75,0.00,,,0.06,pywws,2013-01-31 21:19:00,
2013-01-31 21:24:00,45.7,38.6,29.94,North,-999,0.0,2.2,76,0.00,,,0.06,pywws,2013-01-31 21:24:00,
2013-01-31 21:34:00,45.9,39.1,29.94,North,-999,0.0,2.2,77,0.00,,,0.06,pywws,2013-01-31 21:34:00,
2013-01-31 21:39:00,45.9,39.1,29.94,SE,135,0.7,2.2,77,0.00,,,0.06,pywws,2013-01-31 21:39:00,
2013-01-31 21:44:00,45.7,38.9,29.94,North,-999,0.0,0.7,77,0.00,,,0.06,pywws,2013-01-31 21:44:00,
2013-01-31 21:49:00,45.9,39.1,29.93,WNW,292,0.7,2.2,77,0.00,,,0.06,pywws,2013-01-31 21:49:00,
2013-01-31 21:54:00,45.7,38.9,29.93,SW,225,0.7,3.1,77,0.00,,,0.06,pywws,2013-01-31 21:54:00,
2013-01-31 22:04:00,45.7,38.9,29.93,NNE,22,0.7,4.5,77,0.00,,,0.06,pywws,2013-01-31 22:04:00,
2013-01-31 22:09:00,45.7,39.2,29.92,SW,225,1.6,3.8,78,0.00,,,0.06,pywws,2013-01-31 22:09:00,
2013-01-31 22:14:00,45.5,39.0,29.92,SW,225,1.6,4.5,78,0.00,,,0.06,pywws,2013-01-31 22:14:00,
2013-01-31 22:19:00,45.9,39.4,29.92,SW,225,0.7,3.1,78,0.00,,,0.06,pywws,2013-01-31 22:19:00,
2013-01-31 22:24:00,45.9,39.4,29.91,West,270,0.7,2.2,78,0.00,,,0.06,pywws,2013-01-31 22:24:00,
2013-01-31 22:34:00,45.7,39.2,29.91,SE,135,0.7,3.1,78,0.00,,,0.06,pywws,2013-01-31 22:34:00,
2013-01-31 22:39:00,45.5,39.0,29.90,North,0,1.6,3.8,78,0.00,,,0.06,pywws,2013-01-31 22:39:00,
2013-01-31 22:44:00,45.9,39.4,29.90,West,270,0.7,3.8,78,0.00,,,0.06,pywws,2013-01-31 22:44:00,
2013-01-31 22:49:00,45.9,39.1,29.90,South,180,0.7,2.2,77,0.00,,,0.06,pywws,2013-01-31 22:49:00,
2013-01-31 22:54:00,46.0,39.2,29.89,South,180,2.2,4.5,77,0.00,,,0.06,pywws,2013-01-31 22:54:00,
2013-01-31 23:04:00,46.0,39.2,29.89,West,270,1.6,3.8,77,0.00,,,0.06,pywws,2013-01-31 23:04:00,
2013-01-31 23:09:00,46.0,39.2,29.89,West,270,2.2,3.8,77,0.00,,,0.06,pywws,2013-01-31 23:09:00,
2013-01-31 23:14:00,45.9,39.1,29.89,NW,315,3.1,6.0,77,0.00,,,0.06,pywws,2013-01-31 23:14:00,
2013-01-31 23:19:00,45.9,39.1,29.88,South,180,1.6,5.4,77,0.00,,,0.06,pywws,2013-01-31 23:19:00,
2013-01-31 23:24:00,46.2,39.4,29.89,South,180,1.6,3.8,77,0.00,,,0.06,pywws,2013-01-31 23:24:00,
2013-01-31 23:34:00,46.2,40.1,29.89,West,270,0.7,2.2,79,0.00,,,0.06,pywws,2013-01-31 23:34:00,
2013-01-31 23:38:00,45.7,39.5,29.88,SW,225,0.7,2.2,79,0.00,,,0.06,pywws,2013-01-31 23:38:00,
2013-01-31 23:43:00,45.9,39.7,29.88,SW,225,2.2,5.4,79,0.00,,,0.06,pywws,2013-01-31 23:43:00,
2013-01-31 23:48:00,45.7,39.5,29.88,NE,45,0.7,3.8,79,0.00,,,0.06,pywws,2013-01-31 23:48:00,
2013-01-31 23:53:00,45.7,39.5,29.88,West,270,1.6,3.1,79,0.00,,,0.06,pywws,2013-01-31 23:53:00,